Location: Oshawa
(43.9000°N, 78.8670°W)
Time: 11:21:52
(UTC-04:00)

S-56A Canister/Altair - All Passes

Search period start: 28 September 2016 00:00
Search period end: 08 October 2016 00:00
Orbit: 640 x 2494 km, 38.9° (Epoch: 26 September)

Date Brightness Start Highest point End Pass type
(mag) Time Alt. Az. Time Alt. Az. Time Alt. Az.
28 Sep - 14:57:56 10° SSE 14:59:14 11° SE 15:00:34 10° ESE daylight
28 Sep - 16:56:28 10° SW 17:01:37 41° SSE 17:08:54 10° E daylight
28 Sep - 18:58:50 10° WSW 19:05:21 62° S 19:15:21 10° ESE daylight
28 Sep - 21:02:03 10° W 21:09:55 50° SSW 21:21:30 10° SE visible
28 Sep - 23:06:39 10° W 23:14:40 26° SSW 23:24:52 10° SSE visible
29 Sep - 16:24:37 10° SW 16:29:22 35° SSE 16:35:51 10° E daylight
29 Sep - 18:26:48 10° WSW 18:32:53 61° S 18:42:06 10° E daylight
29 Sep - 20:29:52 10° W 20:37:16 51° SSW 20:48:16 10° SE visible
29 Sep - 22:34:09 10° W 22:41:55 28° SSW 22:52:05 10° SSE visible
30 Sep - 15:52:49 10° SSW 15:57:11 30° SSE 16:02:52 10° E daylight
30 Sep - 17:54:47 10° WSW 18:00:29 58° S 18:08:57 10° E daylight
30 Sep - 19:57:45 10° W 20:04:39 52° SSW 20:15:04 10° ESE visible
30 Sep - 22:01:44 10° W 22:09:12 30° SSW 22:19:14 10° SSE visible
01 Oct - 15:21:04 10° SSW 15:25:02 25° SSE 15:29:56 10° E daylight
01 Oct - 17:22:48 10° WSW 17:28:07 55° S 17:35:52 10° E daylight
01 Oct - 19:25:39 10° W 19:32:08 53° S 19:41:52 10° ESE visible
01 Oct - 21:29:24 10° W 21:36:32 31° SSW 21:46:20 10° SSE visible
01 Oct - 23:38:37 10° SW 23:40:55 11° SW 23:43:20 10° SSW visible
02 Oct - 14:49:21 10° SSW 14:52:54 21° SSE 14:57:03 10° E daylight
02 Oct - 16:50:50 10° WSW 16:55:50 52° SSE 17:02:54 10° E daylight
02 Oct - 18:53:36 10° W 18:59:39 54° S 19:08:43 10° ESE daylight
02 Oct - 20:57:08 10° W 21:03:55 32° SSW 21:13:23 10° SSE visible
02 Oct - 23:04:47 10° WSW 23:08:16 12° SW 23:12:07 10° SSW visible
03 Oct - 14:17:44 10° S 14:20:46 17° SSE 14:24:09 10° ESE daylight
03 Oct - 16:18:51 10° WSW 16:23:35 47° SSE 16:29:59 10° E daylight
03 Oct - 18:21:33 10° W 18:27:14 54° S 18:35:38 10° ESE daylight
03 Oct - 20:24:56 10° W 20:31:21 34° SSW 20:40:26 10° SE visible
03 Oct - 22:31:34 10° WSW 22:35:38 13° SW 22:40:16 10° SSW visible
04 Oct - 13:46:13 10° S 13:48:39 14° SE 13:51:13 10° ESE daylight
04 Oct - 15:46:54 10° SW 15:51:21 43° SSE 15:57:11 10° E daylight
04 Oct - 17:49:31 10° W 17:54:52 54° S 18:02:37 10° ESE daylight
04 Oct - 19:52:47 10° W 19:58:51 35° SSW 20:07:28 10° SE visible
04 Oct - 21:58:41 10° WSW 22:03:03 14° SW 22:08:09 10° S visible
05 Oct - 13:14:57 10° SSE 13:16:31 12° SE 13:18:06 10° SE daylight
05 Oct - 15:14:56 10° SW 15:19:11 38° SSE 15:24:27 10° E daylight
05 Oct - 17:17:30 10° W 17:22:32 53° S 17:29:40 10° ESE daylight
05 Oct - 19:20:40 10° W 19:26:23 36° SSW 19:34:32 10° SE visible
05 Oct - 21:26:01 10° WSW 21:30:29 15° SSW 21:35:50 10° S visible
06 Oct - 14:42:57 10° SW 14:47:01 34° SSE 14:51:47 10° E daylight
06 Oct - 16:45:29 10° WSW 16:50:16 52° S 16:56:49 10° ESE daylight
06 Oct - 18:48:34 10° W 18:53:59 37° SSW 19:01:38 10° SE daylight
06 Oct - 20:53:29 10° WSW 20:57:58 16° SSW 21:03:26 10° S visible
07 Oct - 14:10:58 10° SW 14:14:53 30° SSE 14:19:14 10° E daylight
07 Oct - 16:13:27 10° WSW 16:18:02 51° S 16:24:02 10° ESE daylight
07 Oct - 18:16:30 10° W 18:21:37 38° SSW 18:28:46 10° SE daylight
07 Oct - 20:21:04 10° WSW 20:25:29 17° SSW 20:30:57 10° S visible
